This is the latest recevied weather packets stored in our database for station/object KI5RAB. If no packets are shown the sender has not sent any weather packets the latest 10 day(s).
| Time | Temp. | Humidity | Pressure | Rain* | Wind** | Luminosity | Snow |
|---|---|---|---|---|---|---|---|
| 1778110917 | 22.22° C | 74% | 1013.8 hPa | 0 mm | - | 68 W/m² | - |
| 1778110615 | 22.78° C | 74% | 1013.8 hPa | 0 mm | - | 76 W/m² | - |
| 1778110311 | 22.78° C | 73% | 1013.8 hPa | 0 mm | - | 84 W/m² | - |
| 1778110007 | 22.78° C | 73% | 1013.6 hPa | 0 mm | - | 95 W/m² | - |
| 1778109703 | 23.89° C | 72% | 1013.6 hPa | 0 mm | - | 100 W/m² | - |
| 1778109400 | 24.44° C | 72% | 1013.4 hPa | 0 mm | - | 110 W/m² | - |
| 1778109099 | 25° C | 71% | 1013.4 hPa | 0 mm | - | 133 W/m² | - |
| 1778108795 | 25° C | 70% | 1013.2 hPa | 0 mm | - | 175 W/m² | - |
| 1778108492 | 25.56° C | 70% | 1013 hPa | 0 mm | - | 183 W/m² | - |
| 1778108189 | 25° C | 71% | 1013.2 hPa | 0 mm | - | 180 W/m² | - |
| 1778107885 | 25° C | 71% | 1013.1 hPa | 0 mm | - | 136 W/m² | - |
| 1778107582 | 25.56° C | 72% | 1013.2 hPa | 0 mm | - | 99 W/m² | - |
| 1778107278 | 25.56° C | 71% | 1012.9 hPa | 0 mm | - | 79 W/m² | - |
| 1778106974 | 25.56° C | 71% | 1012.9 hPa | 0 mm | - | 74 W/m² | - |
| 1778106671 | 26.11° C | 71% | 1012.8 hPa | 0 mm | - | 112 W/m² | - |
| 1778106368 | 26.11° C | 71% | 1012.7 hPa | 0 mm | - | 182 W/m² | - |
| 1778106064 | 26.11° C | 70% | 1012.8 hPa | 0 mm | - | 169 W/m² | - |
| 1778105762 | 26.67° C | 70% | 1012.4 hPa | 0 mm | - | 207 W/m² | - |
| 1778105460 | 27.22° C | 69% | 1012.5 hPa | 0 mm | - | 238 W/m² | - |
| 1778105155 | 27.22° C | 69% | 1012.5 hPa | 0 mm | - | 257 W/m² | - |
| 1778104851 | 27.78° C | 69% | 1012.4 hPa | 0 mm | - | 319 W/m² | - |
| 1778104548 | 27.78° C | 68% | 1012.4 hPa | 0 mm | - | 379 W/m² | - |
| 1778104244 | 27.78° C | 70% | 1012.6 hPa | 0 mm | - | 433 W/m² | - |
| 1778103941 | 28.33° C | 70% | 1012.6 hPa | 0 mm | - | 300 W/m² | - |
| 1778103638 | 27.78° C | 71% | 1012.3 hPa | 0 mm | - | 387 W/m² | - |
* Rain latest hour (hover to see other rain measurements)
** Current wind speed in m/s (hover to see current wind gust speed)